FENGYUN 1C DEB, 31483

Orbit data source: Space-Track

FENGYUN 1C DEB, 31483 is space debris in SSO originally from a launch on Mon, 10 May 1999 UTC launched from the Taiyaun Space Center, China (TSC). Fengyun 1C debris stems from the Chinese weather satellite Fengyun-1C, which was intentionally destroyed by a Chinese anti-satellite missile in 2007. This event dramatically increased the amount of space debris, with thousands of trackable fragments posing hazards to satellites and human spaceflight. The Fengyun 1C debris cloud has become a focal point in discussions about space sustainability and the need for international regulations to prevent the creation of new debris.

Loading next visibility...
Identifier
31483, 1999-025BVX
Orbit
SSO
Country
Flag of CNCN / PRC
Related business
Manufacturer
Unknown
Mission
Spacecraft
Bus & Motor
Unknown
Mass
Unknown
Launch date (UTC)
1999-05-10 (27 years ago)
Launch vehicle
Unknown
Launch site
Taiyaun Space Center, China (TSC)
Object type
Payload
Rocket body
Debris
Shape & HBR
Unknown shape, 0.1 m
Radar Cross Section
Medium (>0.1 m² and <1 m²)

Expand to show TLE details & history
Last TLE update: 2 days ago

TLE from 2 days ago
0 FENGYUN 1C DEB
1 31483U 99025BVX 26168.03842557  .00004271  00000-0  19708-2 0  9992
2 31483 102.5055 198.1535 0121227 117.4278 301.1383 14.18033752973457
Epoch: 2026-06-17T00:55Z
TLE epoch observation values (Epoch: 2026-06-17T00:55:19.969Z)
Latitude
55.40694°
Longitude
-99.6374°
Altitude
796.603 km
Speed
7.484 km/s
True Right ascension
11h 57m 59s
True Declination
55° 14' 49"
Sunlit
Object was in daylight at epoch
Visualization orbit readout
Latitude
Unknown
Longitude
Unknown
Altitude
Unknown
Speed
Unknown
Apparent Right ascension
Unknown
Apparent Declination
Unknown
Sunlit
N/A
Visualization observer readout
Local Sidereal Time
07:55:47
Azimuth
Unknown
Elevation
Unknown
Doppler factor
Unknown
Orbital elements
Apogee altitude
916.765 km
Perigee altitude
742.015 km
Semi-major axis
7,207.527 km
Eccentricity
0.01212
Inclination
102.5055°
RAAN
198.1535°
Arg. of periapsis
117.4278°
True anomaly
299.93999°
Mean anomaly
301.1383°
Eccentric anomaly
300.54008°
Mean motion
3.54702 °/min
Orbital period
101.49 mins
BSTAR
0.0019708
Loading maneuver chart data...
Computing Atmospheric mass density...
Loading historical data...
Loading historical data...
Loading historical data...
Loading historical data...
Loading historical data...
Loading historical data...
Loading historical data...

Documentation

Showing up to 5 results
|